Location: Lewisville
(33.0462°N, 96.9942°W)
Time: 06:13:00
(UTC-05:00)

Envisat - Pass Details

Date: 08 January 2020
Orbit: 764 x 766 km, 98.1° (Epoch: 06 July)

Event Time Altitude Azimuth Distance (km) Brightness Sun altitude
Rises 18:36:26 0° 172° (S) 3,215 6.4 -12.2°
Reaches altitude 10° 18:38:45 10° 175° (S) 2,293 5.6 -12.7°
Maximum altitude 18:43:47 70° 258° (WSW) 814 3.3 -13.7°
Drops below altitude 10° 18:48:51 10° 343° (NNW) 2,307 5.5 -14.7°
Sets 18:51:11 0° 345° (NNW) 3,237 6.2 -15.2°
